Dewpoint
58 58 58 58 58 58 58 59 59 59 59 59 59 59 60 61 59 46 34 42 47 67 59 35 40 40 42 43 45 56 57 53 44 46 50 46 47 50 54 56 57 56 59 60 60
58 58 58 58 58 58 58 58 58 59 59 59 58 59 60 60 49 35 54 63 62 68 32 34 34 37 36 38 41 46 52 40 41 43 44 47 44 53 55 54 56 58 59 59 59
58 57 57 57 57 57 58 58 58 58 57 57 58 58 60 58 43 27 64 65 62 56 32 35 35 35 36 34 35 39 39 38 39 42 43 44 48 55 54 53 53 59 56 57 58
57 57 57 57 57 57 57 57 57 57 57 57 57 58 60 51 30 35 68 63 65 35 34 34 36 35 35 33 34 35 36 36 36 36 41 43 45 50 53 53 55 58 55 56 58
57 57 57 56 56 56 56 56 56 56 56 57 57 59 51 44 30 43 69 59 35 34 39 32 34 35 35 33 31 32 35 34 33 35 42 40 41 47 53 56 53 54 55 54 57
57 57 57 56 55 56 56 55 55 55 56 57 58 59 48 36 25 42 40 36 28 33 32 32 33 34 34 32 31 33 33 34 35 37 37 34 35 41 56 59 54 55 54 53 55
57 57 57 56 56 56 56 55 55 55 56 57 58 53 41 36 27 34 33 42 24 30 32 33 33 32 35 30 34 31 32 33 37 34 32 33 39 41 51 50 52 53 54 54 53
57 57 57 56 56 55 55 55 55 55 57 58 59 49 42 30 26 29 28 30 29 28 32 31 33 33 33 32 31 29 31 32 37 34 32 29 34 40 41 43 49 51 52 55 55
57 57 57 56 55 56 55 55 55 58 60 59 51 46 34 38 19 26 25 22 26 28 30 30 31 31 30 30 27 30 28 31 36 35 32 29 31 30 37 42 43 50 52 54 57
56 56 56 56 55 55 54 54 56 59 56 50 46 41 36 20 14 25 28 26 24 24 25 28 27 28 28 26 24 25 29 29 25 29 30 29 29 28 28 35 41 50 51 54 56
56 55 55 55 55 54 51 49 48 47 48 38 34 29 19 18 24 25 27 27 24 24 23 23 21 21 23 25 26 25 25 26 25 25 28 28 27 28 27 30 39 41 48 52 54
55 55 55 55 54 53 50 42 32 36 34 41 34 24 27 23 18 23 25 20 19 15 17 18 18 18 19 20 21 23 24 22 23 23 26 29 26 27 27 27 34 41 43 50 52
55 54 54 54 53 50 41 36 35 33 31 33 33 29 26 24 16 16 24 21 20 15 11 12 11 15 16 14 18 21 18 20 20 21 22 22 26 29 27 31 29 36 42 46 51
54 54 54 53 50 45 39 38 35 36 30 29 28 28 28 23 19 17 23 21 20 19 18 15 13 13 12 14 14 16 16 17 15 17 18 22 20 32 25 30 31 30 36 40 48
54 54 52 51 47 41 42 37 37 36 31 31 27 30 29 25 24 23 21 21 21 21 21 18 18 17 14 13 14 13 11 12 14 15 18 18 19 24 27 25 27 29 31 35 45
53 53 52 50 47 42 40 37 37 30 24 30 32 31 27 25 25 26 24 22 21 21 21 22 22 20 20 17 15 14 10 12 13 14 15 17 17 19 24 29 29 29 30 35 41
52 51 50 48 41 37 37 37 31 26 29 29 29 27 26 24 23 24 25 22 21 22 23 24 23 22 21 21 19 15 7 10 13 14 15 18 17 23 27 28 25 27 28 32 40
50 50 50 45 41 38 39 34 32 28 23 26 27 26 23 24 25 23 25 24 25 22 20 20 20 23 23 23 21 18 10 10 18 12 18 28 22 21 19 20 23 24 27 31 32
50 48 46 46 41 40 38 31 28 28 26 25 25 24 25 24 24 25 24 23 23 23 22 21 24 22 21 21 21 19 17 15 14 12 12 14 19 24 24 23 21 29 31 32 35
48 46 43 40 39 40 36 33 31 30 29 26 26 26 24 25 26 25 26 25 23 22 23 24 25 25 23 24 23 19 18 14 17 22 19 16 28 31 28 27 29 29 33 34 38
48 44 39 37 39 37 33 30 28 27 30 27 28 28 27 29 30 26 25 26 26 26 27 25 24 25 26 25 24 23 23 18 14 16 19 19 29 33 37 29 29 31 35 34 41
46 41 38 36 34 34 30 30 34 28 29 28 30 30 30 30 28 25 29 33 31 30 29 30 27 26 25 26 26 28 25 24 22 26 21 22 24 29 32 30 28 31 37 41 47
47 42 39 35 34 33 31 31 29 27 28 28 28 29 33 32 32 31 31 34 33 32 38 36 33 28 26 25 34 32 31 31 26 23 31 23 26 39 41 38 44 41 43 51 48
47 36 36 36 37 37 36 33 31 31 30 31 32 32 31 31 32 32 32 32 34 33 55 43 30 29 26 29 30 30 31 32 31 30 28 26 28 35 40 42 44 45 46 47 53
47 39 40 34 33 35 36 37 33 31 31 33 34 32 32 34 34 32 33 34 34 49 38 35 33 32 31 30 30 29 29 30 32 33 32 30 29 32 35 35 39 46 50 50 51
41 41 42 36 40 38 37 35 34 34 35 35 34 35 35 35 37 37 36 38 37 36 36 35 36 35 33 31 30 29 29 28 28 29 29 29 28 38 50 52 42 46 59 63 60
42 44 41 40 34 34 37 38 36 36 36 34 35 34 33 36 35 34 32 30 32 33 32 32 31 33 30 30 29 28 28 27 27 29 32 36 41 54 55 57 61 58 55 60 64
Lifted_Index
13 13 13 13 13 13 13 14 14 14 14 14 14 13 13 12 12 11 10 9 9 9 8 7 6 5 3 1 -0 -1 -1 -2 -2 -2 -2 -1 -1 -2 -2 -1 -1 -2 -3 -3 -3
13 13 13 13 13 13 13 14 14 14 14 14 14 14 13 12 11 10 10 10 10 9 8 7 6 5 3 1 0 -0 -1 -1 -1 -1 -1 -1 -1 -2 -1 -1 -1 -2 -3 -3 -3
12 12 12 13 13 14 14 14 14 14 14 15 14 14 13 11 10 9 10 10 10 9 8 7 6 5 3 1 1 1 1 1 1 0 -0 -0 -1 -1 -1 -1 -1 -3 -3 -3 -3
11 11 12 12 13 13 14 14 14 14 14 15 15 14 12 10 9 8 9 10 10 9 7 6 6 4 2 1 2 2 2 2 2 1 0 -1 -1 -2 -2 -2 -2 -3 -3 -2 -2
11 11 11 11 12 12 13 14 14 13 13 14 14 13 11 9 8 8 8 9 9 8 7 6 5 4 3 2 2 3 3 3 2 1 0 0 -1 -2 -2 -2 -3 -3 -2 -2 -2
11 11 11 11 11 12 13 13 13 13 13 14 14 12 10 8 8 8 8 8 9 8 7 6 5 4 4 3 3 3 3 3 2 2 1 1 0 -1 -2 -2 -3 -3 -2 -2 -1
10 10 10 10 11 12 12 13 13 13 13 13 13 11 9 8 8 8 8 8 8 8 7 6 5 5 4 4 3 3 3 2 2 2 2 2 1 -1 -2 -2 -2 -2 -2 -2 -1
9 9 10 10 10 11 12 13 13 12 12 13 12 10 8 8 9 9 8 8 8 7 7 6 6 5 5 4 3 2 1 1 1 1 3 2 1 -0 -1 -1 -1 -2 -2 -2 -2
9 9 9 10 10 11 12 12 12 12 11 11 10 8 7 8 9 9 8 8 8 7 7 7 6 5 5 4 2 1 0 -0 -0 1 2 3 2 1 0 0 -1 -1 -2 -2 -2
9 9 9 9 10 10 11 11 10 9 9 9 8 7 7 8 8 8 8 8 8 7 7 7 6 5 4 3 1 0 0 0 0 1 2 3 3 2 1 1 -0 -1 -2 -2 -3
9 9 9 9 9 10 10 9 7 6 6 6 6 7 7 8 8 8 7 7 7 7 7 6 6 5 4 2 1 0 1 1 1 1 2 3 3 2 1 1 0 -1 -1 -2 -2
9 9 9 9 9 10 9 8 7 6 5 5 6 6 7 7 8 7 7 7 7 6 6 5 4 4 3 2 1 1 2 2 1 1 2 3 3 2 1 1 1 0 -0 -1 -2
8 8 8 8 8 8 8 8 7 7 5 5 5 6 7 7 7 7 7 7 6 5 5 4 3 3 3 3 2 2 2 1 1 2 2 2 2 1 0 1 1 1 0 -1 -2
8 8 8 8 7 7 7 7 7 6 5 4 5 6 6 7 6 6 6 6 6 5 4 3 3 2 3 3 2 2 1 1 2 2 2 2 1 0 -0 1 2 2 1 -0 -1
8 8 8 8 7 6 6 6 6 5 3 3 5 5 6 6 6 6 6 6 5 4 4 3 3 3 3 3 3 2 2 2 2 2 2 2 1 -0 -0 0 1 2 1 0 -1
8 8 8 8 7 7 6 6 5 3 2 2 4 4 5 5 5 5 5 5 5 4 3 3 2 2 2 3 3 2 2 2 2 2 1 1 -0 -1 -0 0 1 1 1 0 -0
9 8 8 8 7 7 6 5 4 2 1 1 2 3 4 4 4 4 4 4 4 3 2 1 1 1 2 2 2 2 2 1 1 0 -0 -0 -1 -1 -0 -0 0 0 0 0 0
9 8 8 7 7 7 6 4 2 1 -0 0 1 2 2 2 2 2 3 3 2 2 1 0 -0 0 1 2 2 1 1 0 -0 -1 -1 -1 -1 -1 -0 -0 0 0 0 0 0
8 7 6 6 7 6 5 3 1 0 0 0 0 1 1 0 1 1 1 1 1 1 0 -0 -1 -0 0 1 2 1 1 -0 -1 -1 -1 -1 -1 -1 -0 -0 0 0 1 1 1
7 6 5 5 5 5 3 2 1 1 1 1 1 -0 -0 -0 -0 -0 -0 -0 -0 -0 0 0 -0 -0 0 1 1 1 1 0 -0 -1 -1 -1 -1 -1 -0 -0 0 1 1 1 1
5 4 4 5 4 3 2 1 1 2 2 2 1 0 -0 -0 -0 -0 -0 -0 0 1 1 0 -0 -1 -0 0 0 0 0 0 -0 -1 -1 -1 -0 -0 -0 -0 -0 0 1 1 0
3 3 4 4 4 2 1 1 2 2 2 2 2 1 1 0 0 -0 -0 0 1 1 1 1 0 -0 -0 -0 -0 -0 -0 -0 -1 -1 -1 -1 -0 -0 0 -0 -0 -0 -0 -0 -1
2 2 3 4 3 1 1 1 2 3 3 3 2 2 2 1 1 0 0 1 2 2 2 1 1 0 0 -0 -0 -0 -1 -1 -1 -1 -1 -1 -0 0 0 0 -0 -1 -1 -2 -2
2 2 3 3 2 1 1 1 2 3 3 3 3 3 2 2 1 1 0 1 2 2 2 2 2 1 1 1 0 -0 -0 -0 -0 -1 -1 -0 0 0 1 0 -0 -1 -2 -2 -2
2 2 2 2 2 1 1 2 2 3 3 3 3 3 3 2 2 1 1 1 2 2 2 2 2 2 1 1 1 1 0 -0 -0 -0 -0 -0 0 0 -0 -1 -0 -1 -2 -3 -4
3 3 3 2 2 2 2 2 2 3 3 3 4 4 4 3 3 2 2 2 3 3 3 2 2 2 2 2 2 2 1 0 -0 -0 -0 -0 -0 -1 -2 -2 -2 -2 -2 -4 -5
5 4 4 3 3 2 2 2 3 3 4 4 4 4 4 4 4 4 4 4 3 3 3 3 3 3 3 2 2 2 1 0 -0 -0 -0 -1 -1 -2 -3 -3 -3 -3 -3 -5 -7